[[[{"header":{"parameterUnit":"kt","parameterCategory":2,"dx":1,"dy":1,"la1":30.253999710083008,"la2":30.299108505249023,"lo1":-89.0895004272461,"lo2":-89.04439544677734,"nx":28,"ny":28,"refTime":"2022-10-03T21:00:00:Z","depth":0,"parameterNumber":1,"parameterNumberName":"U-component_of_WINDS"},"data":[-1.4358,-1.4407,-1.4335,-1.4359,-1.4298,-1.4302,-1.428,-1.4245,-1.4199,-1.4196,-1.4182,-1.4115,-1.4042,-1.4008,-1.399,-1.3961,-1.396,-1.403,-1.3985,-1.3734,-1.3695,-1.3657,-1.3641,-1.403,-1.403,-1.4255,-1.4257,-1.4259,-1.4183,-1.4123,-1.4113,-1.4055,-1.4047,-1.3936,-1.3881,-1.3882,-1.3889,-1.3832,-1.3814,-1.3806,-1.3791,-1.3691,-1.3665,-1.3688,-1.3635,-1.3686,-1.3685,-1.3676,-1.3404,-1.3388,-1.3729,-1.3729,-1.3729,-1.3729,-1.3729,-1.3729,-1.3843,-1.3876,-1.3797,-1.3786,-1.3737,-1.3699,-1.3717,-1.3633,-1.3623,-1.3586,-1.35,-1.3508,-1.3437,-1.337,-1.3329,-1.3334,-1.3264,-1.3298,-1.3307,-1.3319,-1.3342,-1.3033,-1.3325,-1.3324,-1.3323,-1.3322,-1.3321,0,-1.3573,-1.351,-1.3495,-1.346,-1.3447,-1.3413,-1.3369,-1.3378,-1.3219,-1.3219,-1.3211,-1.3195,-1.3163,-1.315,-1.3108,-1.3058,-1.2945,-1.2925,-1.2948,-1.2992,-1.3037,-1.3017,-1.2581,-1.2918,-1.2914,-1.2911,-1.2909,-1.2908,-1.3229,-1.3273,-1.3155,-1.3155,-1.3112,-1.3114,-1.31,-1.2956,-1.2949,-1.2874,-1.291,-1.2893,-1.2872,-1.2874,-1.2776,-1.2753,-1.2699,-1.2836,-1.2695,-1.2734,-1.2704,-1.2705,-1.2709,-1.2868,-1.2873,-1.2877,-1.288,0,-1.3042,-1.2921,-1.2967,-1.2845,-1.2815,-1.2871,-1.2767,-1.2793,-1.2707,-1.2732,-1.2729,-1.2597,-1.2593,-1.2471,-1.2442,-1.2379,-1.2473,-1.2418,-1.2496,-1.248,-1.2592,-1.2585,-1.2973,-1.3017,-1.2608,-1.2612,-1.2616,0,-1.2702,-1.2767,-1.2582,-1.2616,-1.2682,-1.2534,-1.2606,-1.2538,-1.2473,-1.2491,-1.234,-1.2361,-1.2201,-1.2205,-1.2112,-1.2165,-1.2159,-1.2115,-1.2091,-1.2131,-1.2137,-1.2129,-1.2112,-1.2029,-1.2027,-1.2025,-1.2024,0,-1.2426,-1.2401,-1.2453,-1.2428,-1.2304,-1.2333,-1.2283,-1.2208,-1.2197,-1.2161,-1.2152,-1.2123,-1.2108,-1.2088,-1.1969,-1.1878,-1.2031,-1.1881,-1.1986,-1.199,-1.203,-1.203,-1.2399,-1.2021,-1.2021,-1.202,-1.2019,0,-1.2133,-1.2098,-1.2191,-1.2084,-1.2084,-1.2118,-1.2078,-1.2078,-1.2011,-1.1953,-1.1925,-1.1811,-1.1845,-1.1706,-1.1752,-1.1668,-1.1662,-1.1622,-1.1627,-1.1626,-1.1475,-1.1705,-1.2066,-1.2101,-1.1621,-1.1618,-1.1615,0,-1.1851,-1.1911,-1.1784,-1.1876,-1.1887,-1.1715,-1.1751,-1.1695,-1.1621,-1.162,-1.1538,-1.154,-1.141,-1.1394,-1.1432,-1.1349,-1.1459,-1.133,-1.1337,-1.1339,-1.1364,-1.1693,-1.178,-1.1999,-1.1571,-1.1575,-1.1578,0,-1.1617,-1.1464,-1.1489,-1.1455,-1.1355,-1.1363,-1.1404,-1.1371,-1.1378,-1.133,-1.1363,-1.136,-1.1263,-1.1238,-1.1141,-1.1188,-1.138,-1.1078,-1.1074,-1.114,-1.1537,-1.1618,-1.1656,-1.1305,-1.1311,-1.1315,-1.1543,0,-1.1208,-1.1221,-1.1283,-1.1211,-1.1197,-1.1247,-1.1114,-1.1117,-1.1025,-1.0945,-1.0989,-1.0912,-1.0881,-1.0889,-1.08,-1.0945,-1.0902,-1.0799,-1.0657,-1.0874,-1.0946,-1.0975,-1.056,-1.0555,-1.0551,-1.0548,0,0,-1.0971,-1.0986,-1.0844,-1.0877,-1.0857,-1.0678,-1.0743,-1.0703,-1.0628,-1.0619,-1.0537,-1.0525,-1.0466,-1.0534,-1.0591,-1.0578,-1.0593,-1.0522,-1.0771,-1.0797,-1.082,-1.09,-1.0932,-1.054,-1.0539,-1.0537,-1.0536,0,-1.0794,-1.0732,-1.0797,-1.0748,-1.067,-1.0581,-1.0597,-1.049,-1.0442,-1.0482,-1.0337,-1.0347,-1.0341,-1.0298,-1.0276,-1.0509,-1.0401,-1.0509,-1.068,-1.0733,-1.0765,-1.0791,-1.0877,-1.0909,-1.0526,-1.0526,-1.0527,0,-1.0542,-1.0461,-1.0477,-1.042,-1.0368,-1.0384,-1.0201,-1.0225,-1.0235,-1.0041,-1.0085,-1.0025,-0.9956,-1.0036,-1.0067,-0.9995,-1.0234,-1.0135,-1.0157,-1.0159,-1.0205,-1.0243,-1.0276,-0.9838,-0.9836,-0.9834,0,0,-1.0408,-1.0418,-1.0286,-1.0372,-1.0349,-1.0218,-1.0213,-1.0119,-1.006,-1.0037,-0.9957,-0.9906,-0.99,-0.99,-0.9888,-0.9994,-0.997,-1.0055,-1.0088,-1.0115,-1.0132,-1.0185,-1.0222,-0.9827,-0.9827,-0.9827,0,0,-1.0344,-1.0194,-1.011,-1.0192,-1.014,-1.0017,-1.0076,-0.9971,-0.9946,-0.9926,-0.9772,-0.9752,-0.9824,-0.9771,-0.9692,-0.9836,-0.9698,-0.9714,-0.9869,-0.9908,-0.9939,-0.9952,-0.9497,0,0,0,0,0,-1.0095,-1.0211,-1.0137,-1.0131,-1.0059,-1.0058,-1.0048,-0.9922,-0.9827,-0.9876,-0.9793,-0.9675,-0.9697,-0.9623,-0.9621,-0.9711,-0.9736,-0.9753,-0.9768,-0.999,-1.0033,-1.0068,0,0,0,0,0,0,-1.0091,-1.0084,-1.0133,-1.0018,-1.0001,-1.0053,-0.9864,-0.9832,-0.9818,-0.9795,-0.9695,-0.9672,-0.9566,-0.9616,-0.9615,-0.9704,-0.9497,-0.9743,-0.9756,-0.9769,-1.0005,-1.004,-1.0069,0,0,0,0,0,-1.0088,-1.0081,-0.9999,-1.0015,-1.0,-0.9861,-0.9858,-0.9831,-0.9818,-0.9689,-0.9662,-0.9724,-0.9572,-0.9563,-0.9615,-0.9708,-0.9496,-0.9497,-0.9752,-0.9762,-0.9772,-1.0022,0,0,0,0,0,0,-1.0085,-1.0057,-0.9993,-0.9984,-0.9961,-0.9855,-0.9834,-0.983,-0.9709,-0.9684,-0.971,-0.9693,-0.9578,-0.957,-0.9564,-0.9716,-0.9496,-0.9496,-0.9496,-0.976,-0.9768,-0.9776,0,0,0,0,0,0,-1.0059,-1.0051,-0.9989,-0.9927,-0.991,-0.9851,-0.9832,-0.9858,-0.971,-0.9736,-0.9718,-0.9704,-0.9588,-0.9575,-0.957,-0.9615,-0.9495,-0.9496,-0.9496,-0.9496,-0.9767,-0.9773,0,0,0,0,0,0,-1.0053,-1.0046,-0.9929,-0.9916,-0.99,-0.9787,-0.9871,-0.9806,-0.9656,-0.9745,-0.9639,-0.9631,-0.9597,-0.9588,-0.9575,-0.9623,-0.9617,-0.9495,-0.9495,-0.9496,-0.9496,0,0,0,0,0,0,0,-1.0048,-1.0129,-1.0048,-0.9906,-0.9892,-0.9899,-0.9896,-0.9894,-0.9654,-0.9648,-0.9641,-0.9635,-0.9493,-0.9494,-0.9494,-0.963,0,0,-0.9495,-0.9495,0,0,0,0,0,0,0,0,-1.0129,-1.0129,-1.0048,-1.0046,-1.0044,-0.9898,-0.9896,-0.9894,-0.9653,-0.9648,-0.9642,-0.9637,-0.9493,-0.9494,-0.9494,0,0,0,0,0,0,0,0,0,0,0,0,0,0,0,-1.0048,-1.0046,0,-0.9898,-0.9896,-0.9895,-0.9652,-0.9648,-0.9643,-0.9639,-0.9493,-0.9494,-0.9494,0,0,0,0,0,0,0,0,0,0,0,0,0,0,0,0,0,0,0,0,0,0,0,0,0,0,0,0,0,0,0,0,0,0,0,0,0,0,0,0,0,0,0,0,0,0,0,0,0,0,0,0,0,0,0,0,0,0,0,0,0,0,0,0,0,0,0,0,0]}],[{"header":{"parameterUnit":"kt","parameterCategory":2,"dx":1,"dy":1,"la1":30.253999710083008,"la2":30.299108505249023,"lo1":-89.0895004272461,"lo2":-89.04439544677734,"nx":28,"ny":28,"refTime":"2022-10-03T21:00:00:Z","depth":0,"parameterNumber":2,"parameterNumberName":"V-component_of_WINDS"},"data":[-1.3456,-1.3544,-1.3592,-1.3715,-1.3779,-1.3872,-1.3921,-1.3989,-1.4056,-1.4174,-1.425,-1.4308,-1.4395,-1.4498,-1.4585,-1.4609,-1.4643,-1.464,-1.4669,-1.4639,-1.4639,-1.4638,-1.4621,-1.4646,-1.4646,-1.4695,-1.4695,-1.4695,-1.3433,-1.3497,-1.3575,-1.3684,-1.3752,-1.3785,-1.3874,-1.393,-1.4012,-1.4095,-1.4172,-1.4279,-1.4371,-1.4461,-1.4557,-1.4601,-1.4623,-1.4624,-1.4623,-1.4637,-1.4606,-1.4587,-1.4605,-1.4605,-1.4605,-1.4605,-1.4605,-1.4605,-1.3405,-1.3455,-1.3548,-1.3634,-1.3702,-1.3774,-1.3831,-1.3901,-1.3979,-1.4084,-1.4126,-1.4221,-1.4313,-1.4453,-1.4512,-1.4589,-1.4596,-1.4613,-1.4618,-1.4622,-1.4621,-1.4548,-1.4607,-1.4607,-1.4607,-1.4607,-1.4607,0,-1.3399,-1.3436,-1.3513,-1.3606,-1.3671,-1.3747,-1.3826,-1.3862,-1.3957,-1.4017,-1.4109,-1.4171,-1.4292,-1.4385,-1.4486,-1.4545,-1.4587,-1.4596,-1.4608,-1.4591,-1.4562,-1.4582,-1.4532,-1.4594,-1.4594,-1.4594,-1.4594,-1.4595,-1.3375,-1.3427,-1.3548,-1.3596,-1.365,-1.3727,-1.3783,-1.3862,-1.3918,-1.4027,-1.4068,-1.4162,-1.4241,-1.4381,-1.4463,-1.4555,-1.4576,-1.4595,-1.4591,-1.4571,-1.4581,-1.4578,-1.4585,-1.4595,-1.4595,-1.4595,-1.4595,0,-1.3358,-1.3436,-1.3532,-1.3646,-1.3676,-1.3727,-1.3826,-1.3879,-1.3941,-1.4024,-1.4048,-1.4145,-1.4235,-1.4314,-1.4432,-1.4471,-1.4561,-1.4578,-1.453,-1.4539,-1.4566,-1.4563,-1.4635,-1.465,-1.4622,-1.4622,-1.4622,0,-1.337,-1.3434,-1.3547,-1.3598,-1.3674,-1.3752,-1.3825,-1.3885,-1.3965,-1.4031,-1.409,-1.415,-1.4242,-1.4315,-1.4373,-1.446,-1.4481,-1.4517,-1.4533,-1.4514,-1.451,-1.4547,-1.4547,-1.4561,-1.456,-1.456,-1.456,0,-1.3336,-1.3471,-1.3555,-1.3598,-1.3726,-1.3764,-1.382,-1.391,-1.3963,-1.4046,-1.4083,-1.4173,-1.4224,-1.4294,-1.4367,-1.4361,-1.4474,-1.4481,-1.4512,-1.451,-1.4534,-1.4532,-1.4574,-1.4559,-1.4559,-1.4559,-1.4559,0,-1.3358,-1.3438,-1.3547,-1.3656,-1.3688,-1.3743,-1.3837,-1.3902,-1.3993,-1.4033,-1.4099,-1.4148,-1.4228,-1.423,-1.4343,-1.4314,-1.4361,-1.4402,-1.4406,-1.442,-1.4421,-1.4437,-1.4466,-1.4474,-1.4431,-1.443,-1.4429,0,-1.3299,-1.3429,-1.3497,-1.3598,-1.3669,-1.3731,-1.3794,-1.3872,-1.393,-1.4,-1.4065,-1.4144,-1.4162,-1.4198,-1.4243,-1.4314,-1.4351,-1.4311,-1.4415,-1.4418,-1.4392,-1.4419,-1.4405,-1.445,-1.4416,-1.4417,-1.4418,0,-1.3264,-1.3417,-1.3431,-1.3484,-1.3598,-1.3658,-1.3729,-1.3824,-1.3868,-1.3948,-1.4011,-1.4123,-1.4143,-1.4201,-1.4251,-1.4293,-1.4328,-1.4308,-1.4312,-1.4312,-1.4415,-1.4402,-1.4409,-1.4353,-1.4354,-1.4356,-1.4408,0,-1.3283,-1.3357,-1.3395,-1.3509,-1.3567,-1.3634,-1.3718,-1.3768,-1.381,-1.387,-1.3964,-1.4048,-1.4146,-1.4174,-1.4216,-1.4287,-1.4288,-1.4307,-1.4317,-1.4332,-1.4352,-1.436,-1.4281,-1.4281,-1.4282,-1.4282,0,0,-1.3209,-1.3317,-1.3388,-1.3459,-1.3513,-1.3576,-1.3641,-1.3701,-1.382,-1.3857,-1.3862,-1.4032,-1.4101,-1.4206,-1.4218,-1.4256,-1.4278,-1.4269,-1.4324,-1.4328,-1.4332,-1.4352,-1.4358,-1.4284,-1.4284,-1.4284,-1.4284,0,-1.3234,-1.3299,-1.3361,-1.3426,-1.3525,-1.3585,-1.3599,-1.3709,-1.375,-1.3841,-1.3894,-1.396,-1.4093,-1.416,-1.4211,-1.4257,-1.4295,-1.428,-1.4278,-1.4327,-1.433,-1.4334,-1.4353,-1.4358,-1.4286,-1.4286,-1.4286,0,-1.3215,-1.3295,-1.3333,-1.3456,-1.3521,-1.3592,-1.3622,-1.3695,-1.3749,-1.3816,-1.3906,-1.3964,-1.406,-1.4147,-1.419,-1.4196,-1.4305,-1.4285,-1.4283,-1.429,-1.4342,-1.4346,-1.4349,-1.4305,-1.4304,-1.4304,0,0,-1.3225,-1.3294,-1.3404,-1.3467,-1.3505,-1.3595,-1.3641,-1.3687,-1.3771,-1.3804,-1.3881,-1.3962,-1.4041,-1.4091,-1.4169,-1.4252,-1.428,-1.4284,-1.4283,-1.4282,-1.4288,-1.434,-1.4343,-1.4303,-1.4303,-1.4303,0,0,-1.3231,-1.3361,-1.3388,-1.3471,-1.3549,-1.3663,-1.3699,-1.3736,-1.3814,-1.3816,-1.3899,-1.3925,-1.4007,-1.4063,-1.4039,-1.4174,-1.4182,-1.4189,-1.4135,-1.4135,-1.4135,-1.4121,-1.4083,0,0,0,0,0,-1.3298,-1.3344,-1.3367,-1.3394,-1.355,-1.3649,-1.367,-1.3739,-1.3743,-1.3771,-1.384,-1.3876,-1.4068,-1.4048,-1.4074,-1.4101,-1.4289,-1.4292,-1.4294,-1.4245,-1.4244,-1.4243,0,0,0,0,0,0,-1.3309,-1.3341,-1.3367,-1.3481,-1.3517,-1.3648,-1.367,-1.3691,-1.3742,-1.3747,-1.3862,-1.388,-1.3942,-1.404,-1.4062,-1.4086,-1.4076,-1.429,-1.4292,-1.4294,-1.4244,-1.4244,-1.4243,0,0,0,0,0,-1.3318,-1.3344,-1.3576,-1.3481,-1.3512,-1.3615,-1.3669,-1.3686,-1.3727,-1.3835,-1.3855,-1.3775,-1.394,-1.3964,-1.4053,-1.4074,-1.4061,-1.4069,-1.4292,-1.4293,-1.4295,-1.4244,0,0,0,0,0,0,-1.3325,-1.3361,-1.3584,-1.3596,-1.3468,-1.3609,-1.3633,-1.3682,-1.3814,-1.3833,-1.3753,-1.3755,-1.394,-1.3959,-1.3976,-1.4066,-1.4049,-1.4057,-1.4062,-1.4293,-1.4294,-1.4295,0,0,0,0,0,0,-1.3348,-1.3371,-1.359,-1.3571,-1.3581,-1.3603,-1.3625,-1.3711,-1.3814,-1.3724,-1.373,-1.3752,-1.3914,-1.3955,-1.3969,-1.41,-1.4039,-1.4047,-1.4053,-1.4056,-1.4294,-1.4295,0,0,0,0,0,0,-1.3359,-1.3379,-1.3568,-1.3576,-1.3585,-1.3727,-1.3681,-1.3837,-1.3796,-1.3717,-1.3794,-1.3793,-1.3909,-1.3925,-1.3963,-1.4089,-1.4097,-1.404,-1.4045,-1.4049,-1.4051,0,0,0,0,0,0,0,-1.3368,-1.3217,-1.3512,-1.3581,-1.3589,-1.3708,-1.3712,-1.3715,-1.3795,-1.3795,-1.3794,-1.3793,-1.3995,-1.4003,-1.4012,-1.4079,0,0,-1.4039,-1.4043,0,0,0,0,0,0,0,0,-1.3211,-1.3216,-1.3512,-1.3515,-1.3517,-1.3709,-1.3712,-1.3714,-1.3795,-1.3795,-1.3794,-1.3794,-1.3997,-1.4004,-1.4011,0,0,0,0,0,0,0,0,0,0,0,0,0,0,0,-1.3512,-1.3515,0,-1.3709,-1.3712,-1.3714,-1.3795,-1.3795,-1.3794,-1.3794,-1.3999,-1.4005,-1.401,0,0,0,0,0,0,0,0,0,0,0,0,0,0,0,0,0,0,0,0,0,0,0,0,0,0,0,0,0,0,0,0,0,0,0,0,0,0,0,0,0,0,0,0,0,0,0,0,0,0,0,0,0,0,0,0,0,0,0,0,0,0,0,0,0,0,0,0,0]}]]]